This is the latest recevied weather packets stored in our database for station/object SA6BET-2. If no packets are shown the sender has not sent any weather packets the latest 10 day(s).
| Time | Temp. | Humidity | Pressure | Rain* | Wind** | Luminosity | Snow |
|---|---|---|---|---|---|---|---|
| 1777628964 | 23.89° C | 100% | 1023.8 hPa | - | - | - | - |
| 1777628064 | 23.33° C | 100% | 1023.7 hPa | - | - | - | - |
| 1777627164 | 23.33° C | 100% | 1023.6 hPa | - | - | - | - |
| 1777626260 | 22.78° C | 100% | 1023.5 hPa | - | - | - | - |
| 1777625360 | 22.22° C | 100% | 1023.4 hPa | - | - | - | - |
| 1777624460 | 20.56° C | 100% | 1023.2 hPa | - | - | - | - |
| 1777623560 | 20.56° C | 100% | 1023 hPa | - | - | - | - |
| 1777622659 | 20.56° C | 100% | 1022.9 hPa | - | - | - | - |
| 1777621759 | 19.44° C | 100% | 1022.6 hPa | - | - | - | - |
| 1777620859 | 19.44° C | 100% | 1022.5 hPa | - | - | - | - |
| 1777619959 | 18.89° C | 100% | 1022.4 hPa | - | - | - | - |
| 1777619059 | 18.89° C | 100% | 1022.2 hPa | - | - | - | - |
| 1777618159 | 18.89° C | 100% | 1022 hPa | - | - | - | - |
| 1777617258 | 18.89° C | 100% | 1021.7 hPa | - | - | - | - |
| 1777616358 | 18.89° C | 100% | 1021.6 hPa | - | - | - | - |
| 1777615458 | 18.89° C | 100% | 1021.4 hPa | - | - | - | - |
| 1777614558 | 18.33° C | 100% | 1021.3 hPa | - | - | - | - |
| 1777613658 | 18.33° C | 100% | 1021 hPa | - | - | - | - |
| 1777612758 | 18.33° C | 100% | 1020.9 hPa | - | - | - | - |
| 1777611857 | 18.33° C | 100% | 1020.8 hPa | - | - | - | - |
| 1777610957 | 18.33° C | 100% | 1020.9 hPa | - | - | - | - |
| 1777610057 | 18.33° C | 100% | 1020.9 hPa | - | - | - | - |
| 1777609157 | 18.33° C | 100% | 1020.6 hPa | - | - | - | - |
| 1777608257 | 18.33° C | 100% | 1020.5 hPa | - | - | - | - |
| 1777607357 | 18.33° C | 100% | 1020.4 hPa | - | - | - | - |
* Rain since midnight (hover to see other rain measurements)
** Current wind speed in m/s (hover to see current wind gust speed)